DW8362 Weather Reports


time (UTC)temp
C
wind
direction
speed
KPH
gust
KPH
rain 1hr
cm
rain 24hr
cm
rain mn
cm
humidity
%
barometer
mb
20260507225405 19 162 3.2 4.8 0.00 0.05 0.00 41 1006.8
20260507224906 19 141 1.6 4.8 0.00 0.05 0.00 41 1006.7
20260507224405 20 125 1.6 3.2 0.00 0.05 0.00 41 1006.6
20260507223905 20 178 0.0 3.2 0.00 0.05 0.00 36 1006.5
20260507223405 21 310 0.0 1.6 0.00 0.05 0.00 36 1006.6
20260507222905 21 148 0.0 4.8 0.00 0.05 0.00 37 1006.5
20260507222405 21 148 0.0 6.4 0.00 0.05 0.00 36 1006.6
20260507221905 21 161 1.6 8.0 0.00 0.05 0.00 34 1006.4
20260507221404 22 168 1.6 8.0 0.00 0.05 0.00 36 1006.4
20260507220903 22 134 1.6 1.6 0.00 0.05 0.00 35 1006.4
20260507220405 21 238 0.0 1.6 0.00 0.05 0.00 38 1006.4
20260507215905 21 241 0.0 0.0 0.00 0.05 0.00 36 1006.4
20260507215403 21 125 0.0 4.8 0.00 0.05 0.00 36 1006.4
20260507214904 21 210 0.0 4.8 0.00 0.05 0.00 36 1006.5
20260507214405 21 166 1.6 3.2 0.00 0.05 0.00 36 1006.3
20260507213902 21 338 0.0 3.2 0.00 0.05 0.00 37 1006.4
20260507213408 20 231 0.0 8.0 0.00 0.05 0.00 39 1006.5
20260507213403 20 192 0.0 8.0 0.00 0.05 0.00 38 1006.4
20260507212404 20 310 0.0 9.7 0.00 0.05 0.00 39 1006.5
20260507211903 20 324 3.2 9.7 0.00 0.05 0.00 37 1006.5
20260507211404 20 329 3.2 8.0 0.00 0.05 0.00 38 1006.5
20260507210903 21 319 3.2 8.0 0.00 0.05 0.00 37 1006.6
20260507210403 20 292 0.0 4.8 0.00 0.05 0.00 37 1006.6
20260507205906 21 303 1.6 8.0 0.00 0.05 0.00 36 1006.6
20260507205903 20 188 3.2 6.4 0.00 0.05 0.00 37 1006.6
20260507204902 21 251 1.6 8.0 0.00 0.05 0.00 36 1006.7
20260507204402 21 252 0.0 4.8 0.00 0.05 0.00 38 1006.8
20260507203904 20 154 1.6 4.8 0.00 0.05 0.00 36 1006.9
20260507203402 20 127 0.0 6.4 0.00 0.05 0.00 37 1006.8
20260507202902 20 131 0.0 6.4 0.00 0.05 0.00 37 1006.8
20260507202401 20 166 1.6 11.3 0.00 0.05 0.00 39 1006.9
20260507201902 20 303 3.2 11.3 0.00 0.05 0.00 38 1006.8
20260507201403 20 303 3.2 6.4 0.00 0.05 0.00 37 1007.0
20260507200902 20 243 0.0 6.4 0.00 0.05 0.00 39 1006.9
20260507200401 20 323 0.0 6.4 0.00 0.05 0.00 40 1007.0
20260507195901 20 3 3.2 6.4 0.00 0.05 0.00 39 1006.9
20260507195400 20 16 1.6 4.8 0.00 0.05 0.00 42 1006.9
20260507194900 20 125 1.6 8.0 0.00 0.05 0.00 39 1007.0
20260507194401 19 259 1.6 8.0 0.00 0.05 0.00 39 1007.2
20260507193902 19 326 0.0 8.0 0.00 0.05 0.00 39 1007.2
20260507193404 20 354 1.6 9.7 0.00 0.05 0.00 38 1007.5
20260507193400 19 326 3.2 9.7 0.00 0.05 0.00 39 1007.4
20260507193017 19 142 0.0 9.7 0.00 0.05 0.00 40 1007.4
20260507191901 19 244 1.6 8.0 0.00 0.05 0.00 37 1007.6
20260507191401 19 319 3.2 8.0 0.00 0.05 0.00 40 1007.7
20260507190859 20 243 0.0 4.8 0.00 0.05 0.00 40 1007.7
20260507190402 -17 0.0 0.0 0.00 0.05 0.00 1007.7
20260507185901 -17 0.0 0.0 0.00 0.05 0.00 1008.0
20260507185400 -17 0.0 0.0 0.00 0.05 0.00 1007.9
20260507184858 -17 0.0 4.8 0.00 0.05 0.00 1007.9
20260507184357 19 321 0.0 4.8 0.00 0.05 0.00 40 1007.9
20260507183858 19 321 0.0 9.7 0.00 0.05 0.00 40 1008.0
20260507183357 19 243 0.0 9.7 0.00 0.05 0.00 38 1008.1
20260507182857 18 210 1.6 6.4 0.00 0.05 0.00 40 1008.1
20260507182356 18 189 0.0 9.7 0.00 0.05 0.00 38 1008.2
20260507181856 18 338 3.2 9.7 0.00 0.05 0.00 39 1008.2
20260507181357 18 333 3.2 9.7 0.00 0.05 0.00 38 1008.2
20260507180857 18 103 4.8 9.7 0.00 0.05 0.00 42 1008.3
20260507180400 18 341 1.6 6.4 0.00 0.05 0.00 38 1008.2
20260507180355 18 233 1.6 9.7 0.00 0.05 0.00 43 1008.2
20260507180012 18 317 1.6 8.0 0.00 0.05 0.00 42 1008.3
20260507174859 18 30 1.6 9.7 0.00 0.05 0.00 39 1008.7
20260507174854 18 348 0.0 9.7 0.00 0.05 0.00 40 1008.6
20260507173854 18 330 3.2 6.4 0.00 0.05 0.00 41 1008.8
20260507173401 18 250 1.6 8.0 0.00 0.05 0.00 39 1009.0
20260507173355 18 16 3.2 6.4 0.00 0.05 0.00 42 1008.9
20260507172855 18 142 1.6 6.4 0.00 0.05 0.00 44 1008.9
20260507172512 18 261 3.2 8.0 0.00 0.05 0.00 39 1009.0
20260507171354 18 345 1.6 8.0 0.00 0.05 0.00 39 1009.1
20260507170854 18 219 1.6 9.7 0.00 0.05 0.00 41 1009.2
20260507170353 18 327 1.6 9.7 0.00 0.05 0.00 41 1009.2
20260507165854 18 326 3.2 6.4 0.00 0.05 0.00 44 1009.2
20260507165353 17 279 0.0 4.8 0.00 0.05 0.00 40 1009.3
20260507164855 17 326 0.0 6.4 0.00 0.05 0.00 43 1009.4
20260507164354 17 210 1.6 14.5 0.00 0.05 0.00 44 1009.4
20260507163853 17 333 3.2 14.5 0.00 0.05 0.00 40 1009.6
20260507163353 17 333 4.8 6.4 0.00 0.05 0.00 41 1009.8
20260507162852 17 327 1.6 8.0 0.00 0.05 0.00 41 1009.7
20260507162353 17 319 3.2 8.0 0.00 0.05 0.00 41 1009.7
20260507161852 17 4 3.2 8.0 0.00 0.05 0.00 40 1009.7
20260507161352 17 48 3.2 6.4 0.00 0.05 0.00 40 1009.9
20260507160901 17 336 1.6 8.0 0.00 0.05 0.00 43 1010.0
20260507160853 17 124 1.6 8.0 0.00 0.05 0.00 41 1009.9
20260507160352 17 331 3.2 8.0 0.00 0.05 0.00 44 1009.9
20260507155357 17 30 0.0 4.8 0.00 0.05 0.00 46 1010.1
20260507155353 17 312 3.2 8.0 0.00 0.05 0.00 44 1010.0
20260507155005 16 326 0.0 9.7 0.00 0.05 0.00 47 1010.2
20260507153854 16 337 3.2 11.3 0.00 0.05 0.00 46 1010.3
20260507153352 16 300 3.2 11.3 0.00 0.05 0.00 47 1010.2
20260507152852 16 250 3.2 11.3 0.00 0.05 0.00 44 1010.3
20260507152352 16 193 1.6 20.9 0.00 0.05 0.00 49 1010.5
20260507151853 15 324 6.4 20.9 0.00 0.05 0.00 48 1010.4
20260507151351 15 296 6.4 11.3 0.00 0.05 0.00 48 1010.4
20260507150851 15 329 3.2 8.0 0.00 0.05 0.00 50 1010.6
20260507150351 15 330 3.2 6.4 0.00 0.05 0.00 53 1010.7
20260507145859 14 330 3.2 8.0 0.00 0.05 0.00 53 1011.0
20260507145852 15 293 1.6 4.8 0.00 0.05 0.00 52 1010.9
20260507145352 14 159 0.0 8.0 0.00 0.05 0.00 55 1010.8
20260507144351 14 303 3.2 6.4 0.00 0.05 0.00 54 1011.1
20260507143850 13 300 0.0 4.8 0.00 0.05 0.00 57 1011.2
20260507143351 13 329 1.6 4.8 0.00 0.05 0.00 54 1011.2
20260507142851 13 327 0.0 4.8 0.00 0.05 0.00 56 1011.3
20260507142355 13 343 0.0 3.2 0.00 0.05 0.00 58 1011.5
20260507142350 13 293 0.0 4.8 0.00 0.05 0.00 56 1011.2
20260507141349 13 233 0.0 3.2 0.00 0.05 0.00 56 1011.5
20260507140851 12 330 1.6 3.2 0.00 0.05 0.00 55 1011.5
20260507140349 12 326 1.6 3.2 0.00 0.05 0.00 55 1011.6
20260507135850 12 334 0.0 3.2 0.00 0.05 0.00 54 1011.7
20260507135350 12 303 0.0 4.8 0.00 0.05 0.00 56 1011.7
20260507134855 12 313 0.0 8.0 0.00 0.05 0.00 56 1011.8
20260507134850 12 336 0.0 6.4 0.00 0.05 0.00 56 1011.7
20260507133851 12 338 3.2 8.0 0.00 0.05 0.00 56 1011.8
20260507133349 12 324 1.6 4.8 0.00 0.05 0.00 57 1011.8
20260507132848 12 326 1.6 4.8 0.00 0.05 0.00 57 1011.9
20260507132349 12 327 0.0 8.0 0.00 0.05 0.00 57 1011.9
20260507131849 12 20 0.0 8.0 0.00 0.05 0.00 60 1012.0
20260507131350 12 255 0.0 4.8 0.00 0.05 0.00 58 1011.9
20260507130853 12 245 0.0 6.4 0.00 0.05 0.00 59 1012.0
20260507130848 12 312 1.6 6.4 0.00 0.05 0.00 58 1011.9
20260507125853 12 358 0.0 8.0 0.00 0.05 0.00 60 1012.1
20260507125848 12 345 0.0 6.4 0.00 0.05 0.00 59 1011.9
20260507124846 12 344 1.6 8.0 0.00 0.05 0.00 61 1012.1
20260507124348 12 330 1.6 8.0 0.00 0.05 0.00 60 1012.0
20260507123855 11 323 3.2 6.4 0.00 0.05 0.00 61 1011.7
20260507123848 12 330 3.2 8.0 0.00 0.05 0.00 61 1011.9
20260507122848 11 329 1.6 6.4 0.00 0.05 0.00 62 1011.7
20260507122346 11 316 0.0 4.8 0.00 0.05 0.00 64 1011.7
20260507121847 11 345 0.0 4.8 0.00 0.05 0.00 63 1011.8
20260507121348 11 327 1.6 4.8 0.00 0.05 0.00 65 1011.8
20260507120852 11 344 1.6 6.4 0.00 0.05 0.00 66 1011.5
20260507120846 11 334 1.6 6.4 0.00 0.05 0.00 64 1011.6
20260507115846 11 333 1.6 4.8 0.00 0.05 0.00 67 1011.4
20260507115347 11 344 0.0 4.8 0.00 0.05 0.00 67 1011.5
20260507114845 11 338 0.0 1.6 0.00 0.05 0.00 68 1011.5
20260507114347 11 334 0.0 3.2 0.00 0.05 0.00 68 1011.4
20260507113855 11 241 0.0 1.6 0.00 0.05 0.00 69 1011.5
20260507113846 11 344 0.0 3.2 0.00 0.05 0.00 68 1011.4
20260507113348 11 317 0.0 3.2 0.00 0.05 0.00 69 1011.3
20260507112347 11 337 1.6 1.6 0.00 0.05 0.00 75 1011.4
20260507111847 -17 0.0 0.0 0.00 0.05 0.00 1011.5
20260507111346 -17 0.0 0.0 0.00 0.05 0.00 1011.5
20260507110846 -17 0.0 0.0 0.00 0.05 0.00 1011.5
20260507110348 -17 0.0 0.0 0.00 0.05 0.00 1011.4
20260507110344 -17 0.0 0.0 0.00 0.05 0.00 1011.5
20260507105951 -17 0.0 0.0 0.00 0.05 0.00 1011.4
20260507104841 -17 0.0 0.0 0.00 0.05 0.00 1011.3
20260507104340 -17 0.0 0.0 0.00 0.05 0.00 1011.2
20260507103839 -17 0.0 0.0 0.00 0.05 0.00 1011.0
20260507103337 -17 0.0 0.0 0.00 0.05 0.00 1010.8
20260507102838 -17 0.0 0.0 0.00 0.05 0.00 1010.9
20260507102336 -17 0.0 0.0 0.00 0.05 0.00 1011.0
20260507101836 -17 0.0 0.0 0.00 0.05 0.00 1010.8
20260507101334 -17 0.0 0.0 0.00 0.05 0.00 1010.7
20260507100838 -17 0.0 0.0 0.00 0.05 0.00 1010.6
20260507100834 -17 0.0 0.0 0.00 0.05 0.00 1010.8
20260507095836 -17 0.0 0.0 0.00 0.05 0.00 1010.6
20260507095832 -17 0.0 0.0 0.00 0.05 0.00 1010.8
20260507095436 -17 0.0 0.0 0.00 0.05 0.00 1010.3
20260507094332 -17 0.0 0.0 0.00 0.05 0.00 1010.3
20260507094329 -17 0.0 0.0 0.00 0.05 0.00 1010.4
20260507093326 -17 0.0 0.0 0.00 0.05 0.00 1010.4
20260507092830 -17 0.0 0.0 0.00 0.05 0.00 1010.3
20260507092826 -17 0.0 0.0 0.00 0.05 0.00 1010.3
20260507091823 -17 0.0 0.0 0.00 0.05 0.00 1010.5
20260507091323 -17 0.0 0.0 0.00 0.05 0.00 1010.4
20260507090823 -17 0.0 0.0 0.00 0.05 0.00 1010.4
20260507090326 -17 0.0 0.0 0.00 0.05 0.00 1010.3
20260507090322 -17 0.0 0.0 0.00 0.05 0.00 1010.3
20260507085927 -17 0.0 0.0 0.00 0.05 0.00 1010.4
20260507085426 -17 0.0 0.0 0.00 0.05 0.00 1010.4
20260507084318 -17 0.0 0.0 0.00 0.05 0.00 1010.4
20260507083818 -17 0.0 4.8 0.00 0.05 0.00 1010.2
20260507083320 12 348 0.0 8.0 0.00 0.05 0.00 76 1010.3
20260507083316 16 337 0.0 4.8 0.00 0.05 0.00 75 1010.3
20260507082814 12 316 0.0 6.4 0.00 0.05 0.00 76 1010.3
20260507082432 12 337 1.6 8.0 0.00 0.05 0.00 75 1010.2
20260507081314 12 331 3.2 8.0 0.00 0.05 0.00 75 1010.1
20260507080813 12 341 1.6 8.0 0.00 0.05 0.00 78 1009.9
20260507080315 12 296 3.2 6.4 0.00 0.05 0.00 79 1009.8
20260507075812 12 334 0.0 8.0 0.00 0.05 0.00 80 1009.7
20260507075314 12 330 1.6 8.0 0.00 0.05 0.00 80 1009.6
20260507074811 13 331 1.6 4.8 0.00 0.05 0.00 80 1009.7
20260507074314 13 314 0.0 4.8 0.00 0.05 0.00 80 1009.6
20260507073813 13 326 1.6 4.8 0.00 0.05 0.00 80 1009.6
20260507073314 13 331 0.0 3.2 0.00 0.05 0.00 80 1009.6
20260507072812 13 317 0.0 4.8 0.00 0.05 0.00 80 1009.7
20260507072317 13 353 1.6 4.8 0.00 0.05 0.00 80 1009.6
20260507072312 13 330 1.6 4.8 0.00 0.05 0.00 80 1009.3
20260507071317 13 355 1.6 6.4 0.00 0.05 0.00 79 1009.6
20260507071311 13 336 0.0 8.0 0.00 0.05 0.00 79 1009.6
20260507070811 13 323 1.6 8.0 0.00 0.05 0.00 79 1009.6
20260507065817 13 337 0.0 4.8 0.00 0.05 0.00 79 1009.7
20260507065812 13 331 3.2 4.8 0.00 0.05 0.00 79 1009.6
20260507064811 13 309 1.6 6.4 0.00 0.05 0.00 79 1009.8
20260507064312 13 345 3.2 6.4 0.00 0.05 0.00 79 1009.9
20260507063810 13 344 1.6 4.8 0.00 0.05 0.00 79 1010.0
20260507063312 13 321 0.0 6.4 0.00 0.05 0.00 80 1010.0
20260507062810 13 309 0.0 6.4 0.00 0.05 0.00 80 1010.1
20260507062311 13 248 0.0 3.2 0.00 0.05 0.00 80 1010.1
20260507061810 13 336 1.6 4.8 0.00 0.05 0.00 79 1010.2
20260507061310 13 258 0.0 4.8 0.00 0.05 0.00 79 1010.1
20260507060811 13 306 1.6 4.8 0.00 0.05 0.00 78 1010.0
20260507060316 13 326 1.6 8.0 0.00 0.05 0.00 78 1010.1
20260507060311 13 289 0.0 8.0 0.00 0.05 0.00 78 1010.0
20260507055311 13 330 0.0 6.4 0.00 0.05 0.00 78 1010.1
20260507054811 13 262 0.0 8.0 0.00 0.05 0.00 77 1010.0
20260507054314 13 319 0.0 4.8 0.00 0.05 0.00 78 1009.7
20260507054310 13 324 1.6 8.0 0.00 0.05 0.00 78 1009.8
20260507053311 13 300 1.6 8.0 0.00 0.05 0.00 78 1009.7
20260507052812 13 340 0.0 8.0 0.00 0.05 0.00 77 1009.8
20260507052311 13 329 0.0 4.8 0.00 0.05 0.00 77 1009.7
20260507051811 13 309 0.0 4.8 0.00 0.05 0.00 79 1010.0
20260507051308 13 319 0.0 4.8 0.00 0.05 0.00 79 1009.9
20260507050809 13 338 1.6 6.4 0.00 0.05 0.00 79 1009.8
20260507050308 13 344 1.6 6.4 0.00 0.05 0.00 80 1010.1
20260507045808 13 324 0.0 9.7 0.00 0.05 0.00 80 1010.1
20260507045309 13 358 0.0 9.7 0.00 0.05 0.00 80 1010.0
20260507044809 13 266 1.6 6.4 0.00 0.05 0.00 80 1009.9
20260507044309 13 321 1.6 6.4 0.00 0.05 0.00 80 1009.7
20260507043808 13 343 0.0 6.4 0.00 0.05 0.00 80 1009.3
20260507043308 14 312 3.2 14.5 0.00 0.05 0.00 80 1009.8
20260507042808 14 331 4.8 14.5 0.00 0.05 0.00 80 1010.1
20260507042307 14 327 3.2 8.0 0.00 0.05 0.00 81 1010.0
20260507041809 14 319 0.0 9.7 0.00 0.05 0.00 82 1010.1
20260507041309 14 326 3.2 11.3 0.00 0.05 0.00 81 1009.9
20260507040808 14 334 1.6 11.3 0.00 0.05 0.00 81 1009.2
20260507040309 14 264 1.6 11.3 0.00 0.05 0.00 81 1009.4
20260507035807 14 351 4.8 11.3 0.00 0.05 0.43 81 1009.4
20260507035307 15 336 3.2 8.0 0.00 0.05 0.43 81 1009.7
20260507034813 15 336 1.6 14.5 0.00 0.05 0.43 81 1009.4
20260507034807 15 337 1.6 14.5 0.00 0.05 0.43 81 1009.4
20260507033807 15 336 1.6 11.3 0.00 0.05 0.43 80 1009.2
20260507033307 15 344 4.8 14.5 0.00 0.05 0.43 80 1009.2
20260507032808 15 337 4.8 14.5 0.00 0.05 0.43 80 1009.3
20260507032308 15 316 3.2 14.5 0.00 0.05 0.43 81 1009.2
20260507031807 15 334 4.8 14.5 0.00 0.05 0.43 80 1009.4
20260507031311 15 331 1.6 9.7 0.00 0.05 0.43 80 1009.2
20260507031307 15 334 3.2 8.0 0.00 0.05 0.43 80 1009.3
20260507030307 15 320 3.2 9.7 0.00 0.05 0.43 80 1009.3
20260507025806 15 344 3.2 6.4 0.00 0.05 0.43 80 1009.0
20260507025306 15 331 1.6 14.5 0.00 0.05 0.43 80 1008.8
20260507024807 15 336 3.2 14.5 0.00 0.05 0.43 81 1008.8
20260507024306 15 337 3.2 9.7 0.00 0.05 0.43 81 1008.9
20260507023806 16 327 3.2 9.7 0.00 0.05 0.43 81 1008.9
20260507023305 16 329 1.6 6.4 0.00 0.05 0.43 82 1008.8
20260507022805 16 336 3.2 9.7 0.00 0.05 0.43 82 1008.8
20260507022310 16 330 3.2 6.4 0.00 0.05 0.43 84 1008.6
20260507022306 16 326 4.8 9.7 0.00 0.05 0.43 83 1008.6
20260507021927 16 326 0.0 6.4 0.00 0.05 0.43 84 1008.6
20260507021305 16 344 0.0 3.2 0.00 0.05 0.43 84 1008.9
20260507020306 16 337 0.0 6.4 0.00 0.05 0.43 84 1008.6
20260507015805 16 306 3.2 6.4 0.00 0.05 0.43 84 1008.6
20260507015306 16 327 1.6 4.8 0.00 0.05 0.43 85 1008.7
20260507014805 16 233 0.0 6.4 0.00 0.05 0.43 85 1008.8
20260507014309 16 327 0.0 6.4 0.00 0.05 0.43 85 1008.5
20260507014305 16 330 1.6 6.4 0.00 0.05 0.43 85 1008.8
20260507013312 16 357 0.0 6.4 0.00 0.05 0.43 84 1008.3
20260507013305 16 289 1.6 6.4 0.00 0.05 0.43 85 1008.3
20260507012805 16 354 1.6 6.4 0.00 0.05 0.43 85 1008.3
20260507011810 16 336 3.2 6.4 0.00 0.05 0.43 85 1008.5
20260507011805 16 333 0.0 4.8 0.00 0.05 0.43 84 1008.3
20260507010810 17 338 4.8 14.5 0.00 0.05 0.43 85 1008.7
20260507010805 16 334 4.8 8.0 0.00 0.05 0.43 85 1008.6
20260507010304 16 344 3.2 14.5 0.00 0.05 0.43 85 1008.7
20260507005305 17 326 1.6 11.3 0.00 0.05 0.43 85 1008.7
20260507004804 17 317 0.0 8.0 0.00 0.05 0.43 86 1008.7
20260507004303 17 244 1.6 8.0 0.00 0.05 0.43 85 1008.6
20260507003803 17 307 0.0 4.8 0.00 0.05 0.43 86 1008.4
20260507003302 17 309 0.0 4.8 0.00 0.05 0.43 86 1008.5
20260507002803 17 326 1.6 4.8 0.00 0.05 0.43 86 1008.6
20260507002307 18 344 0.0 6.4 0.03 0.05 0.43 86 1008.2
20260507002305 17 333 1.6 6.4 0.00 0.05 0.43 86 1008.4
20260507001308 18 320 0.0 6.4 0.05 0.05 0.43 87 1008.1
20260507001303 18 336 0.0 6.4 0.03 0.05 0.43 87 1008.0
20260507000923 18 338 1.6 4.8 0.05 0.05 0.43 88 1008.0
20260506235801 18 20 1.6 4.8 0.05 0.05 0.43 89 1007.9
20260506235306 18 327 0.0 0.0 0.05 0.05 0.43 90 1007.7
20260506234802 18 337 0.0 0.0 0.05 0.05 0.43 90 1007.8
20260506234302 18 336 0.0 1.6 0.05 0.05 0.43 90 1007.6
20260506233805 18 334 0.0 3.2 0.05 0.05 0.43 89 1007.3
20260506233801 18 336 0.0 1.6 0.05 0.05 0.43 89 1007.5
20260506232808 20 145 0.0 1.6 0.03 0.03 0.43 87 1007.2
20260506232803 19 245 0.0 3.2 0.05 0.05 0.43 88 1007.1
20260506232301 19 302 0.0 3.2 0.05 0.05 0.43 88 1006.8
20260506231303 20 154 0.0 0.0 0.03 0.03 0.43 87 1006.9
20260506230801 20 154 0.0 0.0 0.00 0.00 0.41 84 1006.8
20260506230301 20 154 0.0 0.0 0.00 0.00 0.41 83 1006.5
20260506225801 21 154 0.0 0.0 0.00 0.00 0.41 82 1006.6